Home > Weather > Caen > Past weeks

Flag for France Past Weather in Caen, Lower Normandy, France — Yesterday and Last 2 Weeks

Now
68 °F

Sunny.


Feels Like: 68 °F
Forecast: 57 / 71 °F
Wind: 6 mph from West

Location: Caen Airport

Current Time: Jul 24, 2016 at 10:37:11 PM

Latest Report: Jul 24, 2016 at 10:00 PM


Visibility: 10 mi

Pressure: 30.12 "Hg

Humidity: 83%

Dew Point: 63 °F

Location of CaenLocation

Past Weather in Caen — Graph

°F

Caen Temperature Yesterday

Maximum temperature yesterday: 77 °F (at 3:00 PM)
Minimum temperature yesterday: 54 °F (at 3:30 AM)
Average temperature yesterday: 64 °F

High & Low Weather Summary for the Past Weeks

 TemperatureHumidityPressure
High97 °F (Jul 19, 4:00 PM)100% (Jul 11, 2:00 AM)30.39 "Hg (Jul 11, 2:00 AM)
Low48 °F (Jul 15, 1:30 AM)22% (Jul 19, 6:00 PM)29.80 "Hg (Jul 20, 2:30 AM)
Average65 °F74%30.10 "Hg
* Reported Jul 9 9:00 PM — Jul 24 9:00 PM, Caen, Weather by CustomWeather, © 2016

Note: Actual official high and low records may vary slightly from our data, if they occured in-between our weather recording intervals... More about our weather records

Advertising

Caen Weather History for the Previous 24 Hours

Scroll right to see more
 ConditionsComfort  
Time TempWeatherWind HumidityBarometerVisibility
9:00 PM
Sun, Jul 24
70 °FOvercast.9 mph73%30.12 "HgN/A
8:30 PM70 °FMostly cloudy.9 mph69%30.12 "HgN/A
8:00 PM72 °FOvercast.9 mph65%30.12 "HgN/A
7:30 PM73 °FMostly cloudy.10 mph61%30.12 "HgN/A
7:00 PM73 °FOvercast.9 mph57%30.12 "HgN/A
6:30 PM73 °FMostly cloudy.9 mph61%30.12 "HgN/A
6:00 PM73 °FMostly cloudy.10 mph61%30.12 "HgN/A
5:30 PM75 °FPassing clouds.12 mph57%30.12 "HgN/A
5:00 PM75 °FPassing clouds.13 mph57%30.12 "HgN/A
4:30 PM75 °FMostly cloudy.10 mph61%30.12 "HgN/A
4:00 PM77 °FPartly sunny.10 mph54%30.12 "HgN/A
3:30 PM75 °FOvercast.10 mph57%30.15 "HgN/A
3:00 PM73 °FOvercast.7 mph65%30.15 "HgN/A
2:30 PM73 °FOvercast.9 mph65%30.15 "HgN/A
2:00 PM73 °FOvercast.8 mph61%30.15 "HgN/A
1:30 PM73 °FBroken clouds.10 mph61%30.15 "HgN/A
1:00 PM72 °FMore clouds than sun.8 mph65%30.15 "HgN/A
12:30 PM72 °FMostly cloudy.9 mph65%30.15 "HgN/A
12:00 PM72 °FBroken clouds.8 mph69%30.15 "HgN/A
11:30 AM68 °FMore clouds than sun.3 mph69%30.15 "HgN/A
11:00 AM66 °FMostly cloudy.7 mph73%30.18 "HgN/A
10:30 AM66 °FMostly cloudy.5 mph73%30.18 "HgN/A
10:00 AM66 °FOvercast.6 mph68%30.18 "HgN/A
9:30 AM64 °FMostly cloudy.3 mph73%30.18 "HgN/A
9:00 AM63 °FSunny.3 mph83%30.18 "Hg10 mi
8:30 AM61 °FClear.3 mph88%30.15 "Hg6 mi
8:00 AM59 °FClear.3 mph88%30.15 "Hg6 mi
7:30 AM57 °FSunny.2 mph94%30.15 "Hg10 mi
7:00 AM54 °FClear.3 mph100%30.15 "Hg10 mi
6:30 AM54 °FClear.1 mph94%30.15 "Hg10 mi
6:00 AM54 °FClear.1 mph100%30.15 "Hg10 mi
5:30 AM55 °FPassing clouds.5 mph94%30.15 "HgN/A
5:00 AM55 °FPassing clouds.5 mph94%30.18 "HgN/A
4:30 AM54 °FClear.5 mph94%30.18 "Hg10 mi
4:00 AM54 °FClear.6 mph100%30.18 "Hg10 mi
3:30 AM55 °FClear.2 mph94%30.18 "Hg10 mi
3:00 AM54 °FClear.2 mph100%30.18 "Hg10 mi
2:30 AM55 °FClear.No wind94%30.18 "Hg10 mi
2:00 AM54 °FClear.3 mph100%30.18 "Hg10 mi
1:30 AM55 °FClear.5 mph94%30.21 "Hg10 mi
1:00 AM55 °FClear.1 mph94%30.21 "Hg10 mi
12:30 AM59 °FClear.No wind88%30.21 "Hg10 mi
12:00 AM59 °FClear.1 mph88%30.21 "Hg10 mi
11:30 PM
Sat, Jul 23
59 °FClear.No wind88%30.18 "Hg10 mi
11:00 PM61 °FClear.No wind83%30.21 "Hg10 mi
10:30 PM63 °FSunny.2 mph83%30.18 "Hg10 mi
10:00 PM63 °FSunny.5 mph77%30.18 "Hg10 mi
Weather by CustomWeather, © 2016

See weather overviewHow to use our weather pages